Home   Weather   Amberg   Past weeks
Flag for Germany

Past Weather in Amberg, Bavaria, Germany — Yesterday and Last 2 Weeks

Now
72 °F

Sunny.


Feels Like: 70 °F
Forecast: 83 / 61 °F
Wind: No wind

Location: Hohenfels

Current Time: Aug 24, 2019 at 11:52:00 am

Latest Report: Aug 24, 2019 at 10:56 am


Visibility: N/A

Pressure: 30.16 "Hg

Humidity: 87%

Dew Point: 68 °F

Location of AmbergLocation

Past Weather in Amberg — Graph

°F

Amberg Temperature Yesterday

Maximum temperature yesterday: 76 °F (at 4:56 pm)
Minimum temperature yesterday: 49 °F (at 5:56 am)
Average temperature yesterday: 64 °F

High & Low Weather Summary for the Past Weeks

 TemperatureHumidityPressure
High90 °F (Aug 18, 5:56 pm)100% (Aug 9, 11:39 pm)30.40 "Hg (Aug 9, 11:39 pm)
Low45 °F (Aug 15, 4:56 am)46% (Aug 18, 5:56 pm)29.77 "Hg (Aug 18, 5:56 pm)
Average64 °F92%30.07 "Hg
* Reported Aug 9 9:56 am — Aug 24 9:56 am, Amberg. Weather by CustomWeather, © 2019

Note: Actual official high and low records may vary slightly from our data, if they occured in-between our weather recording intervals... More about our weather records

Advertising

Amberg Weather History for the Previous 24 Hours

Scroll right to see more
 ConditionsComfort  
Time TempWeatherWind HumidityBarometerVisibility
9:56 am
Sat, Aug 24
69 °FSunny.No wind92%30.16 "HgN/A
8:56 am65 °FSunny.3 mph98%30.16 "HgN/A
7:56 am59 °FSunny.No wind100%30.16 "HgN/A
6:56 am55 °FSunny.No wind100%30.17 "HgN/A
5:56 am56 °FClear.3 mph100%30.17 "HgN/A
4:56 am55 °FClear.No wind100%30.18 "HgN/A
3:56 am57 °FClear.No wind100%30.18 "HgN/A
2:56 am57 °FPassing clouds.No wind100%30.22 "HgN/A
1:56 am57 °FClear.3 mph100%30.22 "HgN/A
12:56 am59 °FClear.3 mph100%30.23 "HgN/A
11:56 pm
Fri, Aug 23
59 °FPassing clouds.No wind100%30.24 "HgN/A
10:56 pm61 °FPassing clouds.No wind99%30.25 "HgN/A
9:56 pm62 °FClear.3 mph99%30.26 "HgN/A
8:56 pm65 °FClear.3 mph99%30.26 "HgN/A
7:56 pm72 °FSunny.No wind73%30.25 "HgN/A
6:56 pm75 °FPassing clouds.6 mph67%30.24 "HgN/A
4:56 pm76 °FPassing clouds.7 mph63%30.26 "HgN/A
4:16 pm75 °FScattered clouds.3 mph65%30.27 "HgN/A
3:56 pm75 °FPartly sunny.9 mph66%30.25 "HgN/A
2:56 pm75 °FPassing clouds.No wind67%30.26 "HgN/A
1:56 pm74 °FPartly sunny.No wind70%30.28 "HgN/A
12:56 pm73 °FSunny.8 mph69%30.28 "HgN/A
12:29 pm72 °FPassing clouds.5 mph73%30.29 "HgN/A
12:01 pm72 °FScattered clouds.3 mph69%30.30 "HgN/A
11:56 am72 °FLight rain. Scattered clouds.7 mph74%30.30 "HgN/A
Weather by CustomWeather, © 2019

See weather overview